DECAYED

STARLINK-1224, 45186 (Decayed)

Orbit data source: Space-Track

STARLINK-1224, 45186 was a payload satellite owned by SpaceX/Seattle (US) in LEO that was launched on Mon, 17 Feb 2020 UTC via an FALCON 9 launch vehicle from the Air Force Eastern Test Range (AFETR). Payload-class satellites include a variety of spacecraft equipped with specific instruments for various scientific and technological missions. These include communications satellites like Starlink; space stations such as the ISS; scientific satellites like the Hubble; Earth observation satellites from companies like Planet Labs, Umbra, and HawkEye 360; GPS; miniature CubeSats for education and research; and military/defense satellites.

Not visible in the next 10 days
Identifier
45186, 2020-012J
Orbit
Decayed
Country
Flag of USUS
Related business
Manufacturer
SpaceX/Seattle
Mission
Decayed Commercial Communications
Bus & Motor
STARLINK, Unknown motor
Mass
260 kg wet, ~248 kg dry
Launch date (UTC)
2020-02-17 (6 years ago)
Launch vehicle
FALCON 9
Launch site
Air Force Eastern Test Range (AFETR)
Object type
Payload
Rocket body
Debris
Shape & HBR
Box + 1 Pan, 10.1 m
Radar Cross Section
13.562 m², Large (>1 m²)

Expand to show TLE details & history
Last TLE update: 6 months ago

TLE from 6 months ago
0 STARLINK-1224
1 45186U 20012J   25266.78038375  .10380144  12521-4  33470-3 0  9997
2 45186  53.0271  15.4512 0003235 297.9844  62.0876 16.44805597310460
Epoch: 2025-09-23T18:43Z
TLE epoch observation values (Epoch: 2025-09-23T18:43:45.155Z)
Latitude
-0.00011°
Longitude
91.64767°
Altitude
152.99 km
Speed
7.816 km/s
True Right ascension
01h 01m 48s
True Declination
0° 00' 00"
Sunlit
Object was in full shadow at epoch
Visualization orbit readout
Latitude
Unknown
Longitude
Unknown
Altitude
Unknown
Speed
Unknown
Apparent Right ascension
Unknown
Apparent Declination
Unknown
Sunlit
N/A
Visualization observer readout
Local Sidereal Time
10:31:15
Azimuth
Unknown
Elevation
Unknown
Doppler factor
Unknown
Orbital elements
Apogee altitude
155.454 km
Perigee altitude
151.228 km
Semi-major axis
6,531.478 km
Eccentricity
0.00032
Inclination
53.0271°
RAAN
15.4512°
Arg. of periapsis
297.9844°
True anomaly
62.12036°
Mean anomaly
62.0876°
Eccentric anomaly
62.10398°
Mean motion
4.11174 °/min
Orbital period
87.55 mins
BSTAR
0.0003347
Loading maneuver chart data...
Computing Atmospheric mass density...
Loading historical data...
Loading historical data...
Loading historical data...
Loading historical data...
Loading historical data...
Loading historical data...
Loading historical data...

Documentation

Showing up to 5 results
|